BEIJING 1 1 28890U 05043A 26178.33751419 .00000092 00000+0 27239-4 0 9993 2 28890 98.2919 311.6071 0013303 248.8253 111.1528 14.63537102102136 HUANJING 1A (HJ-1A) 1 33320U 08041A 26178.28039382 .00001465 00000+0 18149-3 0 9994 2 33320 97.6682 163.7286 0020560 103.7299 256.6206 14.84010028959905 HUANJING 1B (HJ-1B) 1 33321U 08041B 26178.25407175 .00001421 00000+0 17773-3 0 9995 2 33321 97.6517 166.8444 0036964 148.0787 212.2678 14.83334107959909 YAOGAN-4 1 33446U 08061A 26178.28647248 .00001034 00000+0 13294-3 0 9999 2 33446 97.9307 111.7221 0015303 42.4453 317.7941 14.83219124947160 DEIMOS-1 1 35681U 09041A 26178.29256434 .00000751 00000+0 11803-3 0 9994 2 35681 97.7409 335.0825 0002234 117.7661 242.3776 14.75248047908377 UK-DMC 2 1 35683U 09041C 26178.32647568 .00000258 00000+0 44531-4 0 9999 2 35683 97.8842 313.0455 0001257 92.6104 267.5249 14.76069286908060 DMC3-FM1 1 40715U 15032A 26178.24019080 .00000694 00000+0 85797-4 0 9994 2 40715 97.6456 43.0206 0006429 32.8816 327.2799 14.85748335591406 DMC3-FM2 1 40716U 15032B 26178.26220245 .00001190 00000+0 14284-3 0 9998 2 40716 97.6512 44.6225 0007111 37.3402 322.8307 14.85757004591407 DMC3-FM3 1 40717U 15032C 26178.28559972 .00000314 00000+0 42122-4 0 9993 2 40717 97.6564 46.4045 0006348 37.9458 322.2204 14.85744044591414